Year,Month,Day,Hour,Minute,Value (Times are PST for temperature in C)
2019,10,26,00,00,5.80
2019,10,26,00,01,5.80
2019,10,26,00,02,5.80
2019,10,26,00,03,5.80
2019,10,26,00,04,5.80
2019,10,26,00,05,5.80
2019,10,26,00,06,5.70
2019,10,26,00,07,5.70
2019,10,26,00,08,5.70
2019,10,26,00,09,5.70
2019,10,26,00,10,5.70
2019,10,26,00,11,5.70
2019,10,26,00,12,5.60
2019,10,26,00,13,5.60
2019,10,26,00,14,5.60
2019,10,26,00,15,5.60
2019,10,26,00,16,5.60
2019,10,26,00,17,5.60
2019,10,26,00,18,5.60
2019,10,26,00,19,5.60
2019,10,26,00,20,5.60
2019,10,26,00,21,5.60
2019,10,26,00,22,5.60
2019,10,26,00,23,5.60
2019,10,26,00,24,5.50
2019,10,26,00,25,5.50
2019,10,26,00,26,5.50
2019,10,26,00,27,5.50
2019,10,26,00,28,5.50
2019,10,26,00,29,5.50
2019,10,26,00,30,5.50
2019,10,26,00,31,5.40
2019,10,26,00,32,5.40
2019,10,26,00,33,5.40
2019,10,26,00,34,5.40
2019,10,26,00,35,5.40
2019,10,26,00,36,5.40
2019,10,26,00,37,5.40
2019,10,26,00,38,5.40
2019,10,26,00,39,5.40
2019,10,26,00,40,5.40
2019,10,26,00,41,5.40
2019,10,26,00,42,5.40
2019,10,26,00,43,5.40
2019,10,26,00,44,5.40
2019,10,26,00,45,5.40
2019,10,26,00,46,5.40
2019,10,26,00,47,5.30
2019,10,26,00,48,5.30
2019,10,26,00,49,5.30
2019,10,26,00,50,5.30
2019,10,26,00,51,5.30
2019,10,26,00,52,5.30
2019,10,26,00,53,5.20
2019,10,26,00,54,5.20
2019,10,26,00,55,5.20
2019,10,26,00,56,5.20
2019,10,26,00,57,5.20
2019,10,26,00,58,5.10
2019,10,26,00,59,5.10
2019,10,26,01,00,5.10
2019,10,26,01,01,5.10
2019,10,26,01,02,5.10
2019,10,26,01,03,5.10
2019,10,26,01,04,5.00
2019,10,26,01,05,5.00
2019,10,26,01,06,5.00
2019,10,26,01,07,5.00
2019,10,26,01,08,5.00
2019,10,26,01,09,5.00
2019,10,26,01,10,5.00
2019,10,26,01,11,5.00
2019,10,26,01,12,5.00
2019,10,26,01,13,4.90
2019,10,26,01,14,4.90
2019,10,26,01,15,4.90
2019,10,26,01,16,4.90
2019,10,26,01,17,4.90
2019,10,26,01,18,4.90
2019,10,26,01,19,4.90
2019,10,26,01,20,4.90
2019,10,26,01,21,4.90
2019,10,26,01,22,4.90
2019,10,26,01,23,4.90
2019,10,26,01,24,4.90
2019,10,26,01,25,4.90
2019,10,26,01,26,4.90
2019,10,26,01,27,4.90
2019,10,26,01,28,4.90
2019,10,26,01,29,4.90
2019,10,26,01,30,4.90
2019,10,26,01,31,4.90
2019,10,26,01,32,4.90
2019,10,26,01,33,4.80
2019,10,26,01,34,4.80
2019,10,26,01,35,4.80
2019,10,26,01,36,4.80
2019,10,26,01,37,4.80
2019,10,26,01,38,4.80
2019,10,26,01,39,4.80
2019,10,26,01,40,4.80
2019,10,26,01,41,4.80
2019,10,26,01,42,4.80
2019,10,26,01,43,4.70
2019,10,26,01,44,4.70
2019,10,26,01,45,4.70
2019,10,26,01,46,4.70
2019,10,26,01,47,4.70
2019,10,26,01,48,4.70
2019,10,26,01,49,4.70
2019,10,26,01,50,4.70
2019,10,26,01,51,4.70
2019,10,26,01,52,4.70
2019,10,26,01,53,4.70
2019,10,26,01,54,4.70
2019,10,26,01,55,4.70
2019,10,26,01,56,4.70
2019,10,26,01,57,4.70
2019,10,26,01,58,4.70
2019,10,26,01,59,4.70
2019,10,26,02,00,4.70
2019,10,26,02,01,4.70
2019,10,26,02,02,4.60
2019,10,26,02,03,4.60
2019,10,26,02,04,4.60
2019,10,26,02,05,4.60
2019,10,26,02,06,4.60
2019,10,26,02,07,4.60
2019,10,26,02,08,4.60
2019,10,26,02,09,4.60
2019,10,26,02,10,4.60
2019,10,26,02,11,4.60
2019,10,26,02,12,4.60
2019,10,26,02,13,4.60
2019,10,26,02,14,4.60
2019,10,26,02,15,4.60
2019,10,26,02,16,4.60
2019,10,26,02,17,4.50
2019,10,26,02,18,4.50
2019,10,26,02,19,4.50
2019,10,26,02,20,4.40
2019,10,26,02,21,4.40
2019,10,26,02,22,4.40
2019,10,26,02,23,4.40
2019,10,26,02,24,4.30
2019,10,26,02,25,4.30
2019,10,26,02,26,4.30
2019,10,26,02,27,4.30
2019,10,26,02,28,4.30
2019,10,26,02,29,4.30
2019,10,26,02,30,4.30
2019,10,26,02,31,4.30
2019,10,26,02,32,4.30
2019,10,26,02,33,4.30
2019,10,26,02,34,4.30
2019,10,26,02,35,4.40
2019,10,26,02,36,4.40
2019,10,26,02,37,4.40
2019,10,26,02,38,4.40
2019,10,26,02,39,4.40
2019,10,26,02,40,4.40
2019,10,26,02,41,4.40
2019,10,26,02,42,4.40
2019,10,26,02,43,4.40
2019,10,26,02,44,4.40
2019,10,26,02,45,4.30
2019,10,26,02,46,4.30
2019,10,26,02,47,4.30
2019,10,26,02,48,4.30
2019,10,26,02,49,4.30
2019,10,26,02,50,4.30
2019,10,26,02,51,4.30
2019,10,26,02,52,4.30
2019,10,26,02,53,4.30
2019,10,26,02,54,4.30
2019,10,26,02,55,4.40
2019,10,26,02,56,4.40
2019,10,26,02,57,4.40
2019,10,26,02,58,4.30
2019,10,26,02,59,4.30
2019,10,26,03,00,4.30
2019,10,26,03,01,4.30
2019,10,26,03,02,4.30
2019,10,26,03,03,4.30
2019,10,26,03,04,4.30
2019,10,26,03,05,4.30
2019,10,26,03,06,4.20
2019,10,26,03,07,4.20
2019,10,26,03,08,4.20
2019,10,26,03,09,4.20
2019,10,26,03,10,4.20
2019,10,26,03,11,4.20
2019,10,26,03,12,4.20
2019,10,26,03,13,4.10
2019,10,26,03,14,4.10
2019,10,26,03,15,4.10
2019,10,26,03,16,4.10
2019,10,26,03,17,4.10
2019,10,26,03,18,4.10
2019,10,26,03,19,4.10
2019,10,26,03,20,4.10
2019,10,26,03,21,4.10
2019,10,26,03,22,4.10
2019,10,26,03,23,4.10
2019,10,26,03,24,4.10
2019,10,26,03,25,4.10
2019,10,26,03,26,4.10
2019,10,26,03,27,4.10
2019,10,26,03,28,4.10
2019,10,26,03,29,4.10
2019,10,26,03,30,4.10
2019,10,26,03,31,4.10
2019,10,26,03,32,4.10
2019,10,26,03,33,4.10
2019,10,26,03,34,4.10
2019,10,26,03,35,4.10
2019,10,26,03,36,4.10
2019,10,26,03,37,4.10
2019,10,26,03,38,4.10
2019,10,26,03,39,4.10
2019,10,26,03,40,4.10
2019,10,26,03,41,4.20
2019,10,26,03,42,4.20
2019,10,26,03,43,4.20
2019,10,26,03,44,4.20
2019,10,26,03,45,4.10
2019,10,26,03,46,4.10
2019,10,26,03,47,4.10
2019,10,26,03,48,4.10
2019,10,26,03,49,4.10
2019,10,26,03,50,4.00
2019,10,26,03,51,4.00
2019,10,26,03,52,3.90
2019,10,26,03,53,3.90
2019,10,26,03,54,3.90
2019,10,26,03,55,3.80
2019,10,26,03,56,3.80
2019,10,26,03,57,3.80
2019,10,26,03,58,3.80
2019,10,26,03,59,3.80
2019,10,26,04,00,3.70
2019,10,26,04,01,3.70
2019,10,26,04,02,3.70
2019,10,26,04,03,3.70
2019,10,26,04,04,3.70
2019,10,26,04,05,3.70
2019,10,26,04,06,3.60
2019,10,26,04,07,3.60
2019,10,26,04,08,3.60
2019,10,26,04,09,3.60
2019,10,26,04,10,3.60
2019,10,26,04,11,3.60
2019,10,26,04,12,3.60
2019,10,26,04,13,3.60
2019,10,26,04,14,3.50
2019,10,26,04,15,3.50
2019,10,26,04,16,3.50
2019,10,26,04,17,3.50
2019,10,26,04,18,3.50
2019,10,26,04,19,3.50
2019,10,26,04,20,3.50
2019,10,26,04,21,3.50
2019,10,26,04,22,3.50
2019,10,26,04,23,3.50
2019,10,26,04,24,3.50
2019,10,26,04,25,3.50
2019,10,26,04,26,3.50
2019,10,26,04,27,3.50
2019,10,26,04,28,3.50
2019,10,26,04,29,3.50
2019,10,26,04,30,3.50
2019,10,26,04,31,3.60
2019,10,26,04,32,3.60
2019,10,26,04,33,3.60
2019,10,26,04,34,3.60
2019,10,26,04,35,3.60
2019,10,26,04,36,3.60
2019,10,26,04,37,3.50
2019,10,26,04,38,3.50
2019,10,26,04,39,3.50
2019,10,26,04,40,3.50
2019,10,26,04,41,3.50
2019,10,26,04,42,3.50
2019,10,26,04,43,3.50
2019,10,26,04,44,3.50
2019,10,26,04,45,3.50
2019,10,26,04,46,3.50
2019,10,26,04,47,3.50
2019,10,26,04,48,3.50
2019,10,26,04,49,3.40
2019,10,26,04,50,3.40
2019,10,26,04,51,3.40
2019,10,26,04,52,3.40
2019,10,26,04,53,3.40
2019,10,26,04,54,3.40
2019,10,26,04,55,3.40
2019,10,26,04,56,3.40
2019,10,26,04,57,3.50
2019,10,26,04,58,3.50
2019,10,26,04,59,3.50
2019,10,26,05,00,3.50
2019,10,26,05,01,3.50
2019,10,26,05,02,3.50
2019,10,26,05,03,3.50
2019,10,26,05,04,3.50
2019,10,26,05,05,3.50
2019,10,26,05,06,3.50
2019,10,26,05,07,3.50
2019,10,26,05,08,3.50
2019,10,26,05,09,3.50
2019,10,26,05,10,3.50
2019,10,26,05,11,3.50
2019,10,26,05,12,3.50
2019,10,26,05,13,3.50
2019,10,26,05,14,3.50
2019,10,26,05,15,3.50
2019,10,26,05,16,3.50
2019,10,26,05,17,3.50
2019,10,26,05,18,3.50
2019,10,26,05,19,3.50
2019,10,26,05,20,3.50
2019,10,26,05,21,3.50
2019,10,26,05,22,3.50
2019,10,26,05,23,3.50
2019,10,26,05,24,3.50
2019,10,26,05,25,3.50
2019,10,26,05,26,3.50
2019,10,26,05,27,3.60
2019,10,26,05,28,3.60
2019,10,26,05,29,3.60
2019,10,26,05,30,3.60
2019,10,26,05,31,3.60
2019,10,26,05,32,3.60
2019,10,26,05,33,3.60
2019,10,26,05,34,3.60
2019,10,26,05,35,3.60
2019,10,26,05,36,3.60
2019,10,26,05,37,3.60
2019,10,26,05,38,3.60
2019,10,26,05,39,3.60
2019,10,26,05,40,3.60
2019,10,26,05,41,3.60
2019,10,26,05,42,3.60
2019,10,26,05,43,3.60
2019,10,26,05,44,3.60
2019,10,26,05,45,3.50
2019,10,26,05,46,3.50
2019,10,26,05,47,3.50
2019,10,26,05,48,3.50
2019,10,26,05,49,3.40
2019,10,26,05,50,3.40
2019,10,26,05,51,3.40
2019,10,26,05,52,3.40
2019,10,26,05,53,3.30
2019,10,26,05,54,3.30
2019,10,26,05,55,3.30
2019,10,26,05,56,3.30
2019,10,26,05,57,3.30
2019,10,26,05,58,3.30
2019,10,26,05,59,3.30
2019,10,26,06,00,3.20
2019,10,26,06,01,3.20
2019,10,26,06,02,3.20
2019,10,26,06,03,3.20
2019,10,26,06,04,3.20
2019,10,26,06,05,3.20
2019,10,26,06,06,3.20
2019,10,26,06,07,3.20
2019,10,26,06,08,3.20
2019,10,26,06,09,3.20
2019,10,26,06,10,3.20
2019,10,26,06,11,3.20
2019,10,26,06,12,3.20
2019,10,26,06,13,3.20
2019,10,26,06,14,3.30
2019,10,26,06,15,3.20
2019,10,26,06,16,3.20
2019,10,26,06,17,3.30
2019,10,26,06,18,3.30
2019,10,26,06,19,3.30
2019,10,26,06,20,3.30
2019,10,26,06,21,3.30
2019,10,26,06,22,3.30
2019,10,26,06,23,3.30
2019,10,26,06,24,3.30
2019,10,26,06,25,3.30
2019,10,26,06,26,3.30
2019,10,26,06,27,3.30
2019,10,26,06,28,3.30
2019,10,26,06,29,3.30
2019,10,26,06,30,3.30
2019,10,26,06,31,3.30
2019,10,26,06,32,3.30
2019,10,26,06,33,3.30
2019,10,26,06,34,3.30
2019,10,26,06,35,3.30
2019,10,26,06,36,3.30
2019,10,26,06,37,3.30
2019,10,26,06,38,3.20
2019,10,26,06,39,3.20
2019,10,26,06,40,3.20
2019,10,26,06,41,3.20
2019,10,26,06,42,3.20
2019,10,26,06,43,3.20
2019,10,26,06,44,3.20
2019,10,26,06,45,3.10
2019,10,26,06,46,3.10
2019,10,26,06,47,3.10
2019,10,26,06,48,3.10
2019,10,26,06,49,3.10
2019,10,26,06,50,3.10
2019,10,26,06,51,3.10
2019,10,26,06,52,3.10
2019,10,26,06,53,3.10
2019,10,26,06,54,3.00
2019,10,26,06,55,3.00
2019,10,26,06,56,3.00
2019,10,26,06,57,3.00
2019,10,26,06,58,3.00
2019,10,26,06,59,3.00
2019,10,26,07,00,3.00
2019,10,26,07,01,3.00
2019,10,26,07,02,3.00
2019,10,26,07,03,3.00
2019,10,26,07,04,3.00
2019,10,26,07,05,3.00
2019,10,26,07,06,3.00
2019,10,26,07,07,3.00
2019,10,26,07,08,3.00
2019,10,26,07,09,3.00
2019,10,26,07,10,3.00
2019,10,26,07,11,3.00
2019,10,26,07,12,3.00
2019,10,26,07,13,3.00
2019,10,26,07,14,3.10
2019,10,26,07,15,3.10
2019,10,26,07,16,3.10
2019,10,26,07,17,3.10
2019,10,26,07,18,3.20
2019,10,26,07,19,3.20
2019,10,26,07,20,3.20
2019,10,26,07,21,3.20
2019,10,26,07,22,3.20
2019,10,26,07,23,3.20
2019,10,26,07,24,3.30
2019,10,26,07,25,3.30
2019,10,26,07,26,3.30
2019,10,26,07,27,3.30
2019,10,26,07,28,3.40
2019,10,26,07,29,3.40
2019,10,26,07,30,3.40
2019,10,26,07,31,3.40
2019,10,26,07,32,3.40
2019,10,26,07,33,3.50
2019,10,26,07,34,3.50
2019,10,26,07,35,3.50
2019,10,26,07,36,3.50
2019,10,26,07,37,3.50
2019,10,26,07,38,3.50
2019,10,26,07,39,3.50
2019,10,26,07,40,3.50
2019,10,26,07,41,3.50
2019,10,26,07,42,3.50
2019,10,26,07,43,3.50
2019,10,26,07,44,3.60
2019,10,26,07,45,3.60
2019,10,26,07,46,3.60
2019,10,26,07,47,3.60
2019,10,26,07,48,3.60
2019,10,26,07,49,3.70
2019,10,26,07,50,3.70
2019,10,26,07,51,3.70
2019,10,26,07,52,3.80
2019,10,26,07,53,3.80
2019,10,26,07,54,3.90
2019,10,26,07,55,3.90
2019,10,26,07,56,3.90
2019,10,26,07,57,4.00
2019,10,26,07,58,4.10
2019,10,26,07,59,4.10
2019,10,26,08,00,4.20
2019,10,26,08,01,4.20
2019,10,26,08,02,4.20
2019,10,26,08,03,4.30
2019,10,26,08,04,4.20
2019,10,26,08,05,4.20
2019,10,26,08,06,4.20
2019,10,26,08,07,4.20
2019,10,26,08,08,4.20
2019,10,26,08,09,4.20
2019,10,26,08,10,4.20
2019,10,26,08,11,4.10
2019,10,26,08,12,4.10
2019,10,26,08,13,4.10
2019,10,26,08,14,4.10
2019,10,26,08,15,4.10
2019,10,26,08,16,4.10
2019,10,26,08,17,4.10
2019,10,26,08,18,4.10
2019,10,26,08,19,4.10
2019,10,26,08,20,4.10
2019,10,26,08,21,4.10
2019,10,26,08,22,4.10
2019,10,26,08,23,4.10
2019,10,26,08,24,4.10
2019,10,26,08,25,4.10
2019,10,26,08,26,4.10
2019,10,26,08,27,4.20
2019,10,26,08,28,4.20
2019,10,26,08,29,4.20
2019,10,26,08,30,4.30
2019,10,26,08,31,4.30
2019,10,26,08,32,4.30
2019,10,26,08,33,4.40
2019,10,26,08,34,4.40
2019,10,26,08,35,4.40
2019,10,26,08,36,4.40
2019,10,26,08,37,4.40
2019,10,26,08,38,4.50
2019,10,26,08,39,4.50
2019,10,26,08,40,4.50
2019,10,26,08,41,4.60
2019,10,26,08,42,4.60
2019,10,26,08,43,4.60
2019,10,26,08,44,4.60
2019,10,26,08,45,4.60
2019,10,26,08,46,4.60
2019,10,26,08,47,4.60
2019,10,26,08,48,4.60
2019,10,26,08,49,4.60
2019,10,26,08,50,4.60
2019,10,26,08,51,4.50
2019,10,26,08,52,4.50
2019,10,26,08,53,4.50
2019,10,26,08,54,4.60
2019,10,26,08,55,4.60
2019,10,26,08,56,4.60
2019,10,26,08,57,4.60
2019,10,26,08,58,4.60
2019,10,26,08,59,4.60
2019,10,26,09,00,4.60
2019,10,26,09,01,4.60
2019,10,26,09,02,4.70
2019,10,26,09,03,4.70
2019,10,26,09,04,4.70
2019,10,26,09,05,4.70
2019,10,26,09,06,4.80
2019,10,26,09,07,4.80
2019,10,26,09,08,4.80
2019,10,26,09,09,4.90
2019,10,26,09,10,4.90
2019,10,26,09,11,5.00
2019,10,26,09,12,5.00
2019,10,26,09,13,5.10
2019,10,26,09,14,5.20
2019,10,26,09,15,5.30
2019,10,26,09,16,5.30
2019,10,26,09,17,5.40
2019,10,26,09,18,5.50
2019,10,26,09,19,5.60
2019,10,26,09,20,5.60
2019,10,26,09,21,5.70
2019,10,26,09,22,5.80
2019,10,26,09,23,5.90
2019,10,26,09,24,6.00
2019,10,26,09,25,6.00
2019,10,26,09,26,6.10
2019,10,26,09,27,6.20
2019,10,26,09,28,6.30
2019,10,26,09,29,6.40
2019,10,26,09,30,6.50
2019,10,26,09,31,6.60
2019,10,26,09,32,6.70
2019,10,26,09,33,6.80
2019,10,26,09,34,6.90
2019,10,26,09,35,6.90
2019,10,26,09,36,7.00
2019,10,26,09,37,7.00
2019,10,26,09,38,7.10
2019,10,26,09,39,7.10
2019,10,26,09,40,7.20
2019,10,26,09,41,7.20
2019,10,26,09,42,7.20
2019,10,26,09,43,7.20
2019,10,26,09,44,7.30
2019,10,26,09,45,7.30
2019,10,26,09,46,7.40
2019,10,26,09,47,7.40
2019,10,26,09,48,7.50
2019,10,26,09,49,7.60
2019,10,26,09,50,7.60
2019,10,26,09,51,7.70
2019,10,26,09,52,7.80
2019,10,26,09,53,7.90
2019,10,26,09,54,8.00
2019,10,26,09,55,8.10
2019,10,26,09,56,8.20
2019,10,26,09,57,8.20
2019,10,26,09,58,8.30
2019,10,26,09,59,8.40
2019,10,26,10,00,8.50
2019,10,26,10,01,8.60
2019,10,26,10,02,8.70
2019,10,26,10,03,8.80
2019,10,26,10,04,8.90
2019,10,26,10,05,8.90
2019,10,26,10,06,9.00
2019,10,26,10,07,9.10
2019,10,26,10,08,9.20
2019,10,26,10,09,9.30
2019,10,26,10,10,9.30
2019,10,26,10,11,9.40
2019,10,26,10,12,9.50
2019,10,26,10,13,9.50
2019,10,26,10,14,9.60
2019,10,26,10,15,9.70
2019,10,26,10,16,9.70
2019,10,26,10,17,9.80
2019,10,26,10,18,9.90
2019,10,26,10,19,9.90
2019,10,26,10,20,9.90
2019,10,26,10,21,9.90
2019,10,26,10,22,9.90
2019,10,26,10,23,9.90
2019,10,26,10,24,9.90
2019,10,26,10,25,9.90
2019,10,26,10,26,9.90
2019,10,26,10,27,9.90
2019,10,26,10,28,9.90
2019,10,26,10,29,10.00
2019,10,26,10,30,10.00
2019,10,26,10,31,10.10
2019,10,26,10,32,10.10
2019,10,26,10,33,10.20
2019,10,26,10,34,10.20
2019,10,26,10,35,10.30
2019,10,26,10,36,10.30
2019,10,26,10,37,10.30
2019,10,26,10,38,10.30
2019,10,26,10,39,10.40
2019,10,26,10,40,10.40
2019,10,26,10,41,10.40
2019,10,26,10,42,10.50
2019,10,26,10,43,10.50
2019,10,26,10,44,10.50
2019,10,26,10,45,10.50
2019,10,26,10,46,10.60
2019,10,26,10,47,10.60
2019,10,26,10,48,10.70
2019,10,26,10,49,10.70
2019,10,26,10,50,10.70
2019,10,26,10,51,10.80
2019,10,26,10,52,10.90
2019,10,26,10,53,11.00
2019,10,26,10,54,11.00
2019,10,26,10,55,11.10
2019,10,26,10,56,11.10
2019,10,26,10,57,11.10
2019,10,26,10,58,11.10
2019,10,26,10,59,11.10
2019,10,26,11,00,11.00
2019,10,26,11,01,11.00
2019,10,26,11,02,11.00
2019,10,26,11,03,11.00
2019,10,26,11,04,11.00
2019,10,26,11,05,11.10
2019,10,26,11,06,11.10
2019,10,26,11,07,11.10
2019,10,26,11,08,11.10
2019,10,26,11,09,11.20
2019,10,26,11,10,11.20
2019,10,26,11,11,11.30
2019,10,26,11,12,11.40
2019,10,26,11,13,11.40
2019,10,26,11,14,11.50
2019,10,26,11,15,11.60
2019,10,26,11,16,11.60
2019,10,26,11,17,11.70
2019,10,26,11,18,11.70
2019,10,26,11,19,11.70
2019,10,26,11,20,11.70
2019,10,26,11,21,11.80
2019,10,26,11,22,11.80
2019,10,26,11,23,11.80
2019,10,26,11,24,11.90
2019,10,26,11,25,12.00
2019,10,26,11,26,12.00
2019,10,26,11,27,12.10
2019,10,26,11,28,12.10
2019,10,26,11,29,12.20
2019,10,26,11,30,12.20
2019,10,26,11,31,12.20
2019,10,26,11,32,12.20
2019,10,26,11,33,12.20
2019,10,26,11,34,12.20
2019,10,26,11,35,12.20
2019,10,26,11,36,12.20
2019,10,26,11,37,12.20
2019,10,26,11,38,12.30
2019,10,26,11,39,12.30
2019,10,26,11,40,12.30
2019,10,26,11,41,12.30
2019,10,26,11,42,12.40
2019,10,26,11,43,12.40
2019,10,26,11,44,12.40
2019,10,26,11,45,12.40
2019,10,26,11,46,12.40
2019,10,26,11,47,12.40
2019,10,26,11,48,12.40
2019,10,26,11,49,12.40
2019,10,26,11,50,12.40
2019,10,26,11,51,12.40
2019,10,26,11,52,12.40
2019,10,26,11,53,12.40
2019,10,26,11,54,12.40
2019,10,26,11,55,12.40
2019,10,26,11,56,12.40
2019,10,26,11,57,12.40
2019,10,26,11,58,12.40
2019,10,26,11,59,12.40
2019,10,26,12,00,12.50
2019,10,26,12,01,12.50
2019,10,26,12,02,12.50
2019,10,26,12,03,12.50
2019,10,26,12,04,12.50
2019,10,26,12,05,12.50
2019,10,26,12,06,12.50
2019,10,26,12,07,12.50
2019,10,26,12,08,12.60
2019,10,26,12,09,12.60
2019,10,26,12,10,12.60
2019,10,26,12,11,12.60
2019,10,26,12,12,12.60
2019,10,26,12,13,12.70
2019,10,26,12,14,12.70
2019,10,26,12,15,12.70
2019,10,26,12,16,12.70
2019,10,26,12,17,12.70
2019,10,26,12,18,12.70
2019,10,26,12,19,12.70
2019,10,26,12,20,12.70
2019,10,26,12,21,12.60
2019,10,26,12,22,12.60
2019,10,26,12,23,12.60
2019,10,26,12,24,12.60
2019,10,26,12,25,12.60
2019,10,26,12,26,12.60
2019,10,26,12,27,12.70
2019,10,26,12,28,12.70
2019,10,26,12,29,12.70
2019,10,26,12,30,12.80
2019,10,26,12,31,12.80
2019,10,26,12,32,12.90
2019,10,26,12,33,12.90
2019,10,26,12,34,12.90
2019,10,26,12,35,13.00
2019,10,26,12,36,13.00
2019,10,26,12,37,13.10
2019,10,26,12,38,13.10
2019,10,26,12,39,13.10
2019,10,26,12,40,13.10
2019,10,26,12,41,13.10
2019,10,26,12,42,13.10
2019,10,26,12,43,13.10
2019,10,26,12,44,13.10
2019,10,26,12,45,13.10
2019,10,26,12,46,13.10
2019,10,26,12,47,13.10
2019,10,26,12,48,13.10
2019,10,26,12,49,13.10
2019,10,26,12,50,13.10
2019,10,26,12,51,13.10
2019,10,26,12,52,13.20
2019,10,26,12,53,13.30
2019,10,26,12,54,13.30
2019,10,26,12,55,13.30
2019,10,26,12,56,13.30
2019,10,26,12,57,13.30
2019,10,26,12,58,13.30
2019,10,26,12,59,13.30
2019,10,26,13,00,13.30
2019,10,26,13,01,13.30
2019,10,26,13,02,13.30
2019,10,26,13,03,13.40
2019,10,26,13,04,13.40
2019,10,26,13,05,13.40
2019,10,26,13,06,13.50
2019,10,26,13,07,13.50
2019,10,26,13,08,13.60
2019,10,26,13,09,13.60
2019,10,26,13,10,13.60
2019,10,26,13,11,13.60
2019,10,26,13,12,13.60
2019,10,26,13,13,13.60
2019,10,26,13,14,13.70
2019,10,26,13,15,13.70
2019,10,26,13,16,13.80
2019,10,26,13,17,13.80
2019,10,26,13,18,13.80
2019,10,26,13,19,13.80
2019,10,26,13,20,13.90
2019,10,26,13,21,13.90
2019,10,26,13,22,13.90
2019,10,26,13,23,13.90
2019,10,26,13,24,13.90
2019,10,26,13,25,13.90
2019,10,26,13,26,13.90
2019,10,26,13,27,14.00
2019,10,26,13,28,14.00
2019,10,26,13,29,14.00
2019,10,26,13,30,14.00
2019,10,26,13,31,14.00
2019,10,26,13,32,14.00
2019,10,26,13,33,14.00
2019,10,26,13,34,14.00
2019,10,26,13,35,14.10
2019,10,26,13,36,14.10
2019,10,26,13,37,14.00
2019,10,26,13,38,14.00
2019,10,26,13,39,14.00
2019,10,26,13,40,14.00
2019,10,26,13,41,14.10
2019,10,26,13,42,14.10
2019,10,26,13,43,14.10
2019,10,26,13,44,14.10
2019,10,26,13,45,14.10
2019,10,26,13,46,14.10
2019,10,26,13,47,14.10
2019,10,26,13,48,14.10
2019,10,26,13,49,14.10
2019,10,26,13,50,14.10
2019,10,26,13,51,14.10
2019,10,26,13,52,14.20
2019,10,26,13,53,14.20
2019,10,26,13,54,14.20
2019,10,26,13,55,14.20
2019,10,26,13,56,14.20
2019,10,26,13,57,14.20
2019,10,26,13,58,14.20
2019,10,26,13,59,14.30
2019,10,26,14,00,14.30
2019,10,26,14,01,14.30
2019,10,26,14,02,14.40
2019,10,26,14,03,14.40
2019,10,26,14,04,14.40
2019,10,26,14,05,14.40
2019,10,26,14,06,14.40
2019,10,26,14,07,14.40
2019,10,26,14,08,14.40
2019,10,26,14,09,14.40
2019,10,26,14,10,14.40
2019,10,26,14,11,14.40
2019,10,26,14,12,14.40
2019,10,26,14,13,14.40
2019,10,26,14,14,14.40
2019,10,26,14,15,14.50
2019,10,26,14,16,14.50
2019,10,26,14,17,14.50
2019,10,26,14,18,14.50
2019,10,26,14,19,14.50
2019,10,26,14,20,14.50
2019,10,26,14,21,14.50
2019,10,26,14,22,14.60
2019,10,26,14,23,14.60
2019,10,26,14,24,14.60
2019,10,26,14,25,14.60
2019,10,26,14,26,14.60
2019,10,26,14,27,14.60
2019,10,26,14,28,14.60
2019,10,26,14,29,14.60
2019,10,26,14,30,14.60
2019,10,26,14,31,14.60
2019,10,26,14,32,14.60
2019,10,26,14,33,14.60
2019,10,26,14,34,14.60
2019,10,26,14,35,14.60
2019,10,26,14,36,14.50
2019,10,26,14,37,14.50
2019,10,26,14,38,14.50
2019,10,26,14,39,14.60
2019,10,26,14,40,14.60
2019,10,26,14,41,14.60
2019,10,26,14,42,14.70
2019,10,26,14,43,14.70
2019,10,26,14,44,14.70
2019,10,26,14,45,14.70
2019,10,26,14,46,14.70
2019,10,26,14,47,14.60
2019,10,26,14,48,14.60
2019,10,26,14,49,14.60
2019,10,26,14,50,14.60
2019,10,26,14,51,14.60
2019,10,26,14,52,14.60
2019,10,26,14,53,14.50
2019,10,26,14,54,14.60
2019,10,26,14,55,14.50
2019,10,26,14,56,14.50
2019,10,26,14,57,14.50
2019,10,26,14,58,14.50
2019,10,26,14,59,14.50
2019,10,26,15,00,14.50
2019,10,26,15,01,14.50
2019,10,26,15,02,14.50
2019,10,26,15,03,14.50
2019,10,26,15,04,14.50
2019,10,26,15,05,14.50
2019,10,26,15,06,14.50
2019,10,26,15,07,14.50
2019,10,26,15,08,14.50
2019,10,26,15,09,14.60
2019,10,26,15,10,14.60
2019,10,26,15,11,14.60
2019,10,26,15,12,14.60
2019,10,26,15,13,14.60
2019,10,26,15,14,14.60
2019,10,26,15,15,14.60
2019,10,26,15,16,14.60
2019,10,26,15,17,14.60
2019,10,26,15,18,14.60
2019,10,26,15,19,14.60
2019,10,26,15,20,14.60
2019,10,26,15,21,14.60
2019,10,26,15,22,14.70
2019,10,26,15,23,14.70
2019,10,26,15,24,14.70
2019,10,26,15,25,14.70
2019,10,26,15,26,14.70
2019,10,26,15,27,14.70
2019,10,26,15,28,14.60
2019,10,26,15,29,14.60
2019,10,26,15,30,14.60
2019,10,26,15,31,14.60
2019,10,26,15,32,14.60
2019,10,26,15,33,14.70
2019,10,26,15,34,14.70
2019,10,26,15,35,14.70
2019,10,26,15,36,14.70
2019,10,26,15,37,14.70
2019,10,26,15,38,14.70
2019,10,26,15,39,14.70
2019,10,26,15,40,14.70
2019,10,26,15,41,14.70
2019,10,26,15,42,14.80
2019,10,26,15,43,14.80
2019,10,26,15,44,14.70
2019,10,26,15,45,14.80
2019,10,26,15,46,14.80
2019,10,26,15,47,14.80
2019,10,26,15,48,14.80
2019,10,26,15,49,14.90
2019,10,26,15,50,14.90
2019,10,26,15,51,14.90
2019,10,26,15,52,14.90
2019,10,26,15,53,14.90
2019,10,26,15,54,14.90
2019,10,26,15,55,14.90
2019,10,26,15,56,14.90
2019,10,26,15,57,14.90
2019,10,26,15,58,14.90
2019,10,26,15,59,14.80
2019,10,26,16,00,14.80
2019,10,26,16,01,14.80
2019,10,26,16,02,14.80
2019,10,26,16,03,14.80
2019,10,26,16,04,14.80
2019,10,26,16,05,14.80
2019,10,26,16,06,14.80
2019,10,26,16,07,14.80
2019,10,26,16,08,14.70
2019,10,26,16,09,14.70
2019,10,26,16,10,14.70
2019,10,26,16,11,14.70
2019,10,26,16,12,14.70
2019,10,26,16,13,14.70
2019,10,26,16,14,14.70
2019,10,26,16,15,14.70
2019,10,26,16,16,14.70
2019,10,26,16,17,14.70
2019,10,26,16,18,14.60
2019,10,26,16,19,14.60
2019,10,26,16,20,14.60
2019,10,26,16,21,14.60
2019,10,26,16,22,14.50
2019,10,26,16,23,14.50
2019,10,26,16,24,14.50
2019,10,26,16,25,14.50
2019,10,26,16,26,14.40
2019,10,26,16,27,14.40
2019,10,26,16,28,14.40
2019,10,26,16,29,14.40
2019,10,26,16,30,14.40
2019,10,26,16,31,14.40
2019,10,26,16,32,14.40
2019,10,26,16,33,14.30
2019,10,26,16,34,14.30
2019,10,26,16,35,14.30
2019,10,26,16,36,14.30
2019,10,26,16,37,14.30
2019,10,26,16,38,14.30
2019,10,26,16,39,14.30
2019,10,26,16,40,14.30
2019,10,26,16,41,14.30
2019,10,26,16,42,14.20
2019,10,26,16,43,14.20
2019,10,26,16,44,14.20
2019,10,26,16,45,14.20
2019,10,26,16,46,14.20
2019,10,26,16,47,14.20
2019,10,26,16,48,14.20
2019,10,26,16,49,14.20
2019,10,26,16,50,14.20
2019,10,26,16,51,14.20
2019,10,26,16,52,14.20
2019,10,26,16,53,14.10
2019,10,26,16,54,14.10
2019,10,26,16,55,14.10
2019,10,26,16,56,14.10
2019,10,26,16,57,14.10
2019,10,26,16,58,14.10
2019,10,26,16,59,14.10
2019,10,26,17,00,14.10
2019,10,26,17,01,14.10
2019,10,26,17,02,14.00
2019,10,26,17,03,14.00
2019,10,26,17,04,14.00
2019,10,26,17,05,14.00
2019,10,26,17,06,13.90
2019,10,26,17,07,13.90
2019,10,26,17,08,13.90
2019,10,26,17,09,13.90
2019,10,26,17,10,13.90
2019,10,26,17,11,13.80
2019,10,26,17,12,13.80
2019,10,26,17,13,13.80
2019,10,26,17,14,13.80
2019,10,26,17,15,13.80
2019,10,26,17,16,13.80
2019,10,26,17,17,13.80
2019,10,26,17,18,13.70
2019,10,26,17,19,13.70
2019,10,26,17,20,13.70
2019,10,26,17,21,13.60
2019,10,26,17,22,13.60
2019,10,26,17,23,13.60
2019,10,26,17,24,13.50
2019,10,26,17,25,13.50
2019,10,26,17,26,13.40
2019,10,26,17,27,13.40
2019,10,26,17,28,13.40
2019,10,26,17,29,13.40
2019,10,26,17,30,13.40
2019,10,26,17,31,13.30
2019,10,26,17,32,13.30
2019,10,26,17,33,13.30
2019,10,26,17,34,13.20
2019,10,26,17,35,13.20
2019,10,26,17,36,13.20
2019,10,26,17,37,13.20
2019,10,26,17,38,13.10
2019,10,26,17,39,13.10
2019,10,26,17,40,13.00
2019,10,26,17,41,13.00
2019,10,26,17,42,12.90
2019,10,26,17,43,12.90
2019,10,26,17,44,12.90
2019,10,26,17,45,12.80
2019,10,26,17,46,12.80